"startDT [UTC]","vpos","CH4 [ppm]","stdev(CH4) [ppm]","CO2 [ppm]","stdev(CO2) [ppm]","H2O_reported [%]","stdev(H2O_reported)","CavityPressure [torr]","CavityTemp [C]","OutletValve","CH4_dry [ppm]","CO2_dry [ppm]","DasTemp [C]","EtalonTemp [C]","WarmBoxTemp [C]","MPVPosition","T_ECpre [C]","T_EC1 [C]","T_EC2 [C]","p_inlet [hPa]","p_in [hPa]","p_out [hPa]","T_inlet [C]","RH_inlet [%]","dwpt_inlet [C]","T_vent [C]","RH_vent [%]","dwpt_vent [C]","flow_vent [l min-1]","flow_inlet [l min-1]","dwpt_sample [C]","T_room [C]"
2015-07-04 00:00:00,3.0,1.87238,0.00191,396.898,1.698,0.1836,0.2731,139.824,45.000,30844.04673,1.87632,397.827,36.182,45.067,45.000,0.00,0.10,-272.71,-272.78,3,452,-9,26.9,16.3,-0.7,26.6,17.7,0.1,5.73,1.51,2.8,30.4
2015-07-04 00:01:00,3.0,1.87526,0.00041,397.070,0.033,0.0311,0.0014,139.996,45.000,30774.23852,1.87581,397.221,36.168,45.067,45.000,0.00,0.10,-272.72,-272.79,4,453,-9,26.9,16.5,-0.6,26.6,17.7,0.1,5.73,1.58,2.7,30.5
2015-07-04 00:02:00,3.0,1.87581,0.00034,397.158,0.070,0.0273,0.0018,139.998,45.000,30752.32416,1.87627,397.283,36.160,45.067,45.000,0.00,0.10,-272.72,-272.79,4,453,-9,26.9,16.6,-0.5,26.6,17.7,0.1,5.73,1.57,2.7,30.5
2015-07-04 00:03:00,3.0,1.87554,0.00033,397.360,0.043,0.0232,0.0023,140.000,45.000,30733.09960,1.87599,397.468,36.138,45.067,45.000,0.00,0.10,-272.72,-272.78,4,453,-9,26.9,16.8,-0.4,26.6,17.6,0.0,5.73,1.57,2.7,30.4
2015-07-04 00:04:00,3.0,1.87543,0.00041,397.436,0.022,0.0169,0.0022,140.002,45.000,30720.01715,1.87578,397.518,36.125,45.067,45.000,0.00,0.10,-272.72,-272.78,4,453,-9,26.9,16.9,-0.2,26.7,17.3,-0.1,5.73,1.57,2.7,30.5
2015-07-04 00:05:00,3.0,1.87553,0.00050,397.475,0.027,0.0138,0.0021,139.997,45.000,30705.26686,1.87572,397.540,36.126,45.067,45.000,0.00,0.10,-272.73,-272.79,4,453,-9,26.9,17.1,-0.1,26.7,17.2,-0.3,5.73,1.57,2.7,30.5
2015-07-04 00:06:00,3.0,1.87598,0.00030,397.505,0.035,0.0122,0.0019,139.996,45.000,30693.62126,1.87621,397.564,36.132,45.067,45.000,0.00,0.10,-272.73,-272.78,4,453,-9,27.0,17.1,-0.1,26.7,17.0,-0.4,5.73,1.57,2.7,30.5
2015-07-04 00:07:00,3.0,1.87585,0.00035,397.520,0.029,0.0081,0.0022,139.996,45.000,30686.33477,1.87600,397.558,36.129,45.067,45.000,0.00,0.10,-272.72,-272.78,4,453,-9,27.0,17.2,0.0,26.7,17.0,-0.4,5.73,1.57,2.7,30.5
2015-07-04 00:08:00,3.0,1.87572,0.00051,397.483,0.024,0.0079,0.0020,139.999,45.000,30682.51703,1.87589,397.523,36.149,45.067,45.000,0.00,0.10,-272.72,-272.79,4,453,-9,27.0,17.4,0.1,26.7,16.9,-0.5,5.73,1.56,2.7,30.5
2015-07-04 00:09:00,3.0,1.87595,0.00034,397.508,0.022,0.0058,0.0019,139.996,45.000,30674.19239,1.87605,397.534,36.183,45.067,45.000,0.00,0.10,-272.72,-272.79,4,454,-9,27.0,17.3,0.1,26.7,16.9,-0.5,5.73,1.56,2.7,30.5
2015-07-04 00:10:00,3.0,1.87603,0.00035,397.524,0.022,0.0051,0.0023,139.998,45.000,30669.96829,1.87610,397.549,36.188,45.067,45.000,0.00,0.10,-272.72,-272.78,4,454,-9,27.0,17.1,-0.1,26.7,16.9,-0.5,5.73,1.55,2.7,30.5
2015-07-04 00:11:00,3.0,1.87604,0.00046,397.524,0.023,0.0046,0.0021,140.002,45.000,30667.18438,1.87614,397.545,36.188,45.067,45.000,0.00,0.10,-272.72,-272.78,4,454,-9,27.0,17.1,-0.0,26.7,16.8,-0.5,5.73,1.55,2.7,30.6
2015-07-04 00:12:00,3.0,1.87582,0.00030,397.529,0.034,0.0053,0.0017,140.004,45.000,30667.10448,1.87593,397.555,36.188,45.066,45.000,0.00,0.10,-272.73,-272.79,4,454,-9,27.0,17.3,0.1,26.7,16.8,-0.5,5.73,1.55,2.7,30.6
2015-07-04 00:13:00,3.0,1.87577,0.00044,397.489,0.028,0.0047,0.0020,139.997,45.000,30663.20751,1.87587,397.512,36.188,45.066,45.000,0.00,0.10,-272.72,-272.78,4,454,-9,27.0,17.1,-0.0,26.7,16.8,-0.5,5.73,1.55,2.7,30.6
2015-07-04 00:14:00,3.0,1.87563,0.00032,397.513,0.026,0.0033,0.0020,139.998,45.000,30661.95973,1.87566,397.530,36.189,45.067,45.000,0.00,0.10,-272.71,-272.78,4,454,-9,27.0,17.0,-0.1,26.7,16.8,-0.6,5.73,1.55,2.7,30.5
2015-07-04 00:15:00,3.0,1.87613,0.00019,397.532,0.024,0.0046,0.0017,139.998,45.000,30655.84273,1.87622,397.552,36.188,45.067,45.000,0.00,0.10,-272.72,-272.79,4,454,-9,27.0,16.9,-0.2,26.7,16.7,-0.6,5.73,1.54,2.7,30.5
2015-07-04 00:16:00,3.0,1.87614,0.00030,397.544,0.034,0.0026,0.0017,139.999,45.000,30654.45017,1.87619,397.556,36.188,45.067,45.000,0.00,0.10,-272.72,-272.79,4,455,-9,27.0,16.9,-0.2,26.7,16.6,-0.7,5.73,1.55,2.7,30.5
2015-07-04 00:17:00,3.0,1.87594,0.00035,397.561,0.035,0.0032,0.0031,139.999,45.000,30655.85520,1.87600,397.577,36.188,45.067,45.000,0.00,0.10,-272.72,-272.78,4,455,-9,27.0,17.0,-0.1,26.7,16.5,-0.8,5.73,1.54,2.7,30.5
2015-07-04 00:18:00,3.0,1.87592,0.00030,397.523,0.024,0.0027,0.0018,139.999,45.000,30656.05688,1.87598,397.537,36.182,45.067,45.000,0.00,0.10,-272.73,-272.79,4,455,-9,27.0,17.4,0.2,26.7,16.4,-0.9,5.73,1.55,2.7,30.5
2015-07-04 00:19:00,3.0,1.87594,0.00049,397.540,0.028,0.0019,0.0018,139.999,45.000,30654.17425,1.87597,397.548,36.188,45.067,45.000,0.00,0.10,-272.73,-272.79,4,455,-9,27.1,17.6,0.4,26.7,16.3,-0.9,5.73,1.55,2.7,30.6
2015-07-04 00:20:00,0.0,1.87929,0.00759,394.371,1.664,0.6353,0.2884,140.166,45.000,31978.53074,1.89080,397.414,36.188,45.067,45.000,0.00,0.10,-272.72,-272.78,-2,668,-9,27.1,17.3,0.2,26.8,16.2,-1.0,5.73,1.85,2.7,30.7
2015-07-04 00:21:00,0.0,1.87468,0.00038,393.141,0.072,0.8012,0.0046,140.002,45.000,32080.26323,1.88988,397.027,36.183,45.067,45.000,0.00,0.10,-272.72,-272.78,-2,668,-9,27.1,17.5,0.3,26.8,16.3,-0.9,5.73,1.79,2.7,30.7
2015-07-04 00:22:00,0.0,1.87388,0.00049,392.964,0.086,0.8203,0.0066,140.003,45.000,32103.72692,1.88944,396.944,36.179,45.067,45.000,0.00,0.10,-272.72,-272.79,-1,668,-10,27.1,17.8,0.5,26.8,16.3,-0.9,5.73,1.68,2.7,30.6
2015-07-04 00:23:00,0.0,1.87399,0.00034,393.000,0.083,0.8120,0.0061,140.000,45.000,32124.29959,1.88934,396.941,36.187,45.067,45.000,0.00,0.10,-272.72,-272.78,-1,668,-9,27.1,17.5,0.3,26.8,16.3,-0.9,5.73,1.64,2.7,30.7
2015-07-04 00:24:00,0.0,1.87370,0.00045,392.997,0.155,0.8185,0.0102,140.003,45.000,32139.77153,1.88920,396.962,36.186,45.067,45.000,0.00,0.10,-272.71,-272.78,-2,668,-9,27.1,17.5,0.3,26.8,16.3,-0.9,5.73,1.71,2.7,30.6
2015-07-04 00:25:00,0.0,1.87391,0.00040,393.114,0.109,0.8033,0.0088,139.999,45.000,32150.95390,1.88912,397.012,36.187,45.067,45.000,0.00,0.10,-272.72,-272.78,-2,668,-10,27.1,17.2,0.1,26.8,16.3,-0.9,5.73,1.81,2.7,30.6
2015-07-04 00:26:00,0.0,1.87416,0.00046,393.123,0.078,0.8038,0.0077,140.003,45.000,32161.72979,1.88933,397.021,36.184,45.067,45.000,0.00,0.10,-272.72,-272.79,-1,668,-10,27.1,17.3,0.1,26.8,16.4,-0.8,5.73,1.80,2.7,30.6
2015-07-04 00:27:00,0.0,1.87370,0.00027,393.178,0.058,0.8037,0.0039,140.005,45.000,32171.04653,1.88896,397.073,36.187,45.067,45.000,0.00,0.10,-272.72,-272.78,-1,668,-9,27.1,17.1,0.0,26.8,16.4,-0.8,5.73,1.70,2.7,30.7
2015-07-04 00:28:00,0.0,1.87378,0.00049,393.359,0.056,0.7848,0.0076,140.002,45.000,32182.40922,1.88862,397.166,36.181,45.067,45.000,0.00,0.10,-272.72,-272.78,-2,668,-9,27.1,16.7,-0.3,26.8,16.5,-0.7,5.73,1.64,2.7,30.7
2015-07-04 00:29:00,0.0,1.87387,0.00038,393.253,0.045,0.7915,0.0017,139.997,45.000,32188.31797,1.88880,397.093,36.185,45.067,45.000,0.00,0.10,-272.72,-272.79,-2,668,-9,27.1,17.0,-0.1,26.8,16.6,-0.6,5.73,1.70,2.7,30.6
2015-07-04 00:30:00,0.0,1.87371,0.00030,392.963,0.064,0.8101,0.0079,139.997,45.000,32192.31158,1.88900,396.895,36.188,45.067,45.000,0.00,0.10,-272.72,-272.78,-1,668,-9,27.1,17.5,0.3,26.8,16.7,-0.6,5.73,1.80,2.7,30.7
2015-07-04 00:31:00,0.0,1.87398,0.00033,393.068,0.108,0.8120,0.0088,140.000,45.000,32197.26203,1.88934,397.004,36.189,45.067,45.000,0.00,0.10,-272.72,-272.78,-1,668,-9,27.1,17.3,0.2,26.8,16.8,-0.5,5.73,1.81,2.7,30.7
2015-07-04 00:32:00,0.0,1.87380,0.00039,393.135,0.112,0.8045,0.0072,140.006,45.000,32199.74792,1.88905,397.032,36.188,45.067,45.000,0.00,0.10,-272.73,-272.78,-2,668,-9,27.1,17.1,-0.0,26.8,16.9,-0.4,5.73,1.71,2.7,30.6
2015-07-04 00:33:00,0.0,1.87387,0.00043,393.373,0.039,0.7851,0.0017,140.000,45.000,32203.87414,1.88871,397.179,36.195,45.067,45.000,0.00,0.10,-272.72,-272.78,-2,668,-10,27.1,16.7,-0.3,26.8,16.9,-0.4,5.73,1.64,2.7,30.6
2015-07-04 00:34:00,0.0,1.87413,0.00050,393.378,0.066,0.7773,0.0052,139.998,45.000,32204.36451,1.88880,397.151,36.231,45.067,45.000,0.00,0.10,-272.72,-272.78,-1,668,-10,27.1,16.6,-0.4,26.8,17.0,-0.3,5.73,1.69,2.7,30.6
2015-07-04 00:35:00,0.0,1.87369,0.00047,393.251,0.112,0.7941,0.0067,139.998,45.000,32208.09314,1.88870,397.100,36.211,45.067,45.000,0.00,0.10,-272.72,-272.78,-2,668,-10,27.1,17.0,-0.0,26.8,17.1,-0.2,5.73,1.80,2.7,30.7
2015-07-04 00:36:00,0.0,1.87371,0.00033,393.276,0.121,0.7990,0.0120,140.000,45.000,32210.76575,1.88887,397.150,36.195,45.067,45.000,0.00,0.10,-272.72,-272.78,-2,668,-10,27.1,16.8,-0.2,26.8,17.1,-0.2,5.73,1.82,2.7,30.7
2015-07-04 00:37:00,0.0,1.87408,0.00042,393.441,0.065,0.7726,0.0061,140.002,45.000,32213.03447,1.88862,397.188,36.188,45.067,45.000,0.00,0.10,-272.71,-272.77,-2,668,-9,27.1,16.5,-0.5,26.8,17.2,-0.1,5.73,1.73,2.7,30.7
2015-07-04 00:38:00,0.0,1.87386,0.00044,393.329,0.051,0.7875,0.0036,139.997,45.000,32214.01563,1.88882,397.150,36.205,45.067,45.000,0.00,0.10,-272.72,-272.78,-1,667,-10,27.1,16.7,-0.3,26.8,17.2,-0.1,5.73,1.64,2.7,30.7
2015-07-04 00:39:00,0.0,1.87368,0.00041,393.206,0.096,0.7911,0.0114,139.998,45.000,32214.93480,1.88863,397.038,36.242,45.067,45.000,0.00,0.10,-272.72,-272.79,-2,668,-10,27.1,16.9,-0.2,26.8,17.3,-0.1,5.73,1.67,2.7,30.7
2015-07-04 00:40:00,0.0,1.87376,0.00046,393.506,0.083,0.7632,0.0161,140.000,45.000,32216.98813,1.88816,397.210,36.245,45.067,45.000,0.00,0.10,-272.72,-272.78,-3,668,-10,27.1,16.1,-0.8,26.8,17.3,-0.0,5.73,1.79,2.7,30.7
2015-07-04 00:41:00,0.0,1.87396,0.00043,393.356,0.061,0.7747,0.0097,140.002,45.000,32217.66516,1.88861,397.113,36.249,45.067,45.000,0.00,0.10,-272.72,-272.79,-2,668,-10,27.1,16.5,-0.5,26.8,17.4,-0.0,5.73,1.82,2.7,30.7
2015-07-04 00:42:00,0.0,1.87389,0.00035,393.253,0.071,0.7866,0.0077,140.002,45.000,32218.63893,1.88872,397.072,36.247,45.067,45.000,0.00,0.10,-272.72,-272.79,-1,668,-10,27.1,16.9,-0.1,26.8,17.4,0.0,5.73,1.73,2.7,30.7
2015-07-04 00:43:00,0.0,1.87379,0.00051,393.062,0.071,0.8017,0.0051,140.003,45.000,32219.29517,1.88894,396.941,36.251,45.067,45.000,0.00,0.10,-272.72,-272.78,-2,668,-10,27.1,17.1,-0.0,26.8,17.4,0.0,5.73,1.64,2.7,30.6
2015-07-04 00:44:00,0.0,1.87410,0.00024,393.153,0.099,0.7913,0.0078,139.998,45.000,32217.34928,1.88905,396.995,36.250,45.067,45.000,0.00,0.10,-272.71,-272.78,-2,668,-10,27.1,16.8,-0.2,26.8,17.4,0.0,5.73,1.67,2.7,30.6
2015-07-04 00:45:00,0.0,1.87425,0.00030,393.250,0.044,0.7868,0.0046,139.998,45.000,32217.06309,1.88913,397.064,36.248,45.067,45.000,0.00,0.10,-272.72,-272.79,-2,668,-10,27.1,16.7,-0.3,26.8,17.4,0.0,5.73,1.78,2.7,30.7
2015-07-04 00:46:00,0.0,1.87405,0.00033,393.293,0.123,0.7820,0.0092,139.997,45.000,32218.89671,1.88883,397.082,36.241,45.067,45.000,0.00,0.10,-272.73,-272.78,-1,668,-10,27.1,16.5,-0.5,26.8,17.4,0.0,5.73,1.82,2.7,30.7
2015-07-04 00:47:00,0.0,1.87444,0.00044,393.280,0.073,0.7768,0.0051,139.999,45.000,32220.65640,1.88914,397.045,36.243,45.067,45.000,0.00,0.10,-272.72,-272.77,-2,668,-10,27.1,16.5,-0.4,26.8,17.4,0.1,5.73,1.74,2.7,30.7
2015-07-04 00:48:00,0.0,1.87410,0.00031,393.099,0.089,0.7889,0.0059,139.997,45.000,32219.07683,1.88900,396.924,36.240,45.067,45.000,0.00,0.10,-272.72,-272.78,-3,668,-10,27.1,16.7,-0.3,26.8,17.4,0.1,5.73,1.65,2.7,30.7
2015-07-04 00:49:00,0.0,1.87441,0.00045,393.274,0.039,0.7727,0.0036,140.002,45.000,32223.37088,1.88903,397.018,36.234,45.067,45.000,0.00,0.10,-272.72,-272.79,-2,667,-10,27.1,16.3,-0.6,26.8,17.4,0.1,5.73,1.66,2.7,30.7
2015-07-04 00:50:00,0.0,1.87429,0.00042,393.289,0.074,0.7726,0.0064,140.006,45.000,32227.93828,1.88887,397.036,36.245,45.067,45.000,0.00,0.10,-272.72,-272.78,-1,668,-10,27.1,16.3,-0.6,26.8,17.5,0.1,5.73,1.77,2.7,30.7
2015-07-04 00:51:00,0.0,1.87457,0.00038,393.363,0.049,0.7644,0.0027,139.995,45.000,32222.68880,1.88900,397.067,36.244,45.067,45.000,0.00,0.10,-272.71,-272.78,-2,668,-10,27.1,16.2,-0.7,26.8,17.4,0.1,5.73,1.82,2.7,30.7
2015-07-04 00:52:00,0.0,1.87449,0.00040,393.226,0.089,0.7742,0.0054,139.999,45.000,32222.54346,1.88915,396.982,36.205,45.067,45.000,0.00,0.10,-272.72,-272.78,-3,668,-10,27.1,16.5,-0.4,26.8,17.5,0.1,5.73,1.75,2.7,30.7
2015-07-04 00:53:00,0.0,1.87402,0.00042,393.015,0.148,0.7982,0.0089,139.999,45.000,32225.34318,1.88914,396.877,36.192,45.067,45.000,0.00,0.10,-272.72,-272.78,-2,667,-10,27.1,16.8,-0.2,26.8,17.5,0.1,5.73,1.65,2.7,30.7
2015-07-04 00:54:00,0.0,1.87426,0.00047,393.182,0.115,0.7794,0.0073,139.998,45.000,32225.41445,1.88894,396.959,36.194,45.067,45.000,0.00,0.10,-272.71,-272.78,-1,668,-10,27.1,16.4,-0.5,26.8,17.5,0.1,5.73,1.66,2.7,30.6
2015-07-04 00:55:00,0.0,1.87476,0.00044,393.331,0.070,0.7658,0.0033,140.004,45.000,32224.88098,1.88925,397.046,36.205,45.067,45.000,0.00,0.10,-272.71,-272.79,-2,668,-10,27.1,16.2,-0.7,26.8,17.5,0.1,5.73,1.75,2.7,30.6
2015-07-04 00:56:00,0.0,1.87463,0.00051,393.329,0.109,0.7637,0.0092,139.996,45.000,32223.34516,1.88907,397.029,36.213,45.067,45.000,0.00,0.10,-272.72,-272.79,-3,668,-10,27.1,16.1,-0.8,26.8,17.5,0.1,5.73,1.82,2.7,30.7
2015-07-04 00:57:00,0.0,1.87444,0.00028,393.008,0.169,0.7902,0.0129,139.995,45.000,32221.41755,1.88937,396.840,36.243,45.067,45.000,0.00,0.10,-272.72,-272.78,-2,668,-10,27.1,17.0,-0.0,26.8,17.5,0.1,5.73,1.77,2.7,30.6
2015-07-04 00:58:00,0.0,1.87401,0.00047,392.878,0.098,0.8113,0.0062,140.004,45.000,32224.49383,1.88938,396.807,36.239,45.067,45.000,0.00,0.10,-272.71,-272.78,-1,667,-10,27.1,17.2,0.1,26.8,17.4,0.1,5.73,1.67,2.7,30.6
2015-07-04 00:59:00,0.0,1.87455,0.00071,393.077,0.195,0.7924,0.0161,140.001,45.000,32224.14613,1.88948,396.914,36.248,45.067,45.000,0.00,0.10,-272.73,-272.79,-2,667,-10,27.1,16.5,-0.5,26.8,17.4,0.1,5.73,1.64,2.7,30.7
2015-07-04 01:00:00,0.0,1.87565,0.00039,393.562,0.095,0.7345,0.0076,139.998,45.000,32223.25370,1.88956,397.123,36.270,45.067,45.000,0.00,0.10,-272.72,-272.78,-3,667,-10,27.1,15.4,-1.4,26.8,17.4,0.1,5.73,1.73,2.7,30.7
2015-07-04 01:01:00,0.0,1.87578,0.00057,393.582,0.152,0.7357,0.0142,140.004,45.000,32222.88286,1.88963,397.140,36.307,45.067,45.000,0.00,0.10,-272.72,-272.78,-2,667,-10,27.1,15.2,-1.6,26.8,17.4,0.1,5.73,1.81,2.7,30.7
2015-07-04 01:02:00,0.0,1.87631,0.00034,393.794,0.063,0.7117,0.0050,140.005,45.000,32224.62362,1.88973,397.245,36.285,45.066,45.000,0.00,0.10,-272.72,-272.79,-1,668,-10,27.1,14.9,-1.8,26.8,17.4,0.1,5.73,1.80,2.7,30.7
2015-07-04 01:03:00,0.0,1.87626,0.00027,393.535,0.113,0.7295,0.0079,139.995,45.000,32220.53514,1.89003,397.072,36.258,45.066,45.000,0.00,0.10,-272.72,-272.79,-2,667,-10,27.1,15.4,-1.4,26.8,17.4,0.0,5.73,1.69,2.7,30.7
2015-07-04 01:04:00,0.0,1.87629,0.00055,393.537,0.104,0.7332,0.0104,140.003,45.000,32221.17255,1.89012,397.083,36.261,45.067,45.000,0.00,0.10,-272.71,-272.77,-3,667,-10,27.1,15.3,-1.5,26.8,17.4,0.0,5.73,1.64,2.7,30.7
2015-07-04 01:05:00,0.0,1.87672,0.00044,393.774,0.096,0.7104,0.0107,140.004,45.000,32222.68617,1.89021,397.215,36.265,45.067,45.000,0.00,0.10,-272.71,-272.78,-2,667,-10,27.1,14.7,-2.0,26.8,17.4,0.0,5.73,1.70,2.7,30.7
2015-07-04 01:06:00,0.0,1.87657,0.00049,393.804,0.126,0.7032,0.0099,140.002,45.000,32223.92591,1.88978,397.206,36.296,45.067,45.000,0.00,0.10,-272.72,-272.79,-2,667,-10,27.1,14.6,-2.1,26.8,17.4,0.0,5.73,1.80,2.7,30.7
2015-07-04 01:07:00,0.0,1.87681,0.00030,393.824,0.175,0.6988,0.0152,139.995,45.000,32224.09750,1.89003,397.205,36.312,45.067,45.000,0.00,0.10,-272.72,-272.78,-2,668,-10,27.1,14.6,-2.1,26.8,17.4,0.0,5.73,1.81,2.7,30.7
2015-07-04 01:08:00,0.0,1.87721,0.00037,393.800,0.139,0.6980,0.0107,140.004,45.000,32223.45511,1.89037,397.178,36.313,45.067,45.000,0.00,0.10,-272.72,-272.78,-3,667,-10,27.1,14.6,-2.1,26.9,17.4,0.0,5.73,1.73,2.7,30.6
2015-07-04 01:09:00,0.0,1.87695,0.00056,393.892,0.078,0.6960,0.0081,139.997,45.000,32220.61402,1.89007,397.263,36.314,45.067,45.000,0.00,0.10,-272.72,-272.79,-2,667,-10,27.1,14.5,-2.2,26.8,17.3,0.0,5.73,1.64,2.7,30.6
2015-07-04 01:10:00,0.0,1.87675,0.00051,393.743,0.174,0.7048,0.0155,139.999,45.000,32221.43729,1.89012,397.156,36.337,45.067,45.000,0.00,0.10,-272.72,-272.79,-1,667,-10,27.1,15.0,-1.8,26.8,17.3,-0.0,5.73,1.67,2.7,30.7
2015-07-04 01:11:00,0.0,1.87634,0.00041,393.612,0.093,0.7183,0.0078,140.001,45.000,32222.83276,1.88988,397.085,36.364,45.067,45.000,0.00,0.10,-272.71,-272.78,-2,668,-10,27.1,14.9,-1.8,26.8,17.3,-0.1,5.73,1.76,2.7,30.7
2015-07-04 01:12:00,0.0,1.87679,0.00055,393.854,0.082,0.6942,0.0075,140.001,45.000,32222.19993,1.88984,397.219,36.375,45.066,45.000,0.00,0.10,-272.72,-272.78,-3,667,-10,27.1,14.6,-2.1,26.8,17.2,-0.1,5.73,1.82,2.7,30.7
2015-07-04 01:13:00,0.0,1.87626,0.00043,393.660,0.098,0.7144,0.0089,139.999,45.000,32220.41907,1.88980,397.121,36.375,45.066,45.000,0.00,0.10,-272.73,-272.78,-2,667,-10,27.1,15.1,-1.6,26.8,17.1,-0.2,5.73,1.77,2.7,30.7
2015-07-04 01:14:00,0.0,1.87601,0.00036,393.340,0.139,0.7457,0.0123,139.998,45.000,32220.06559,1.89009,396.945,36.375,45.066,45.000,0.00,0.10,-272.72,-272.78,-1,667,-10,27.1,15.8,-1.1,26.8,17.1,-0.2,5.73,1.67,2.7,30.7
2015-07-04 01:15:00,0.0,1.87635,0.00041,393.650,0.073,0.7230,0.0074,140.001,45.000,32220.08561,1.88999,397.156,36.362,45.067,45.000,0.00,0.10,-272.72,-272.78,-2,667,-10,27.1,15.1,-1.6,26.9,17.0,-0.2,5.73,1.65,2.7,30.7
2015-07-04 01:16:00,0.0,1.87666,0.00044,393.661,0.070,0.7199,0.0073,140.000,45.000,32220.86449,1.89031,397.144,36.335,45.067,45.000,0.00,0.10,-272.72,-272.79,-3,667,-10,27.1,15.0,-1.7,26.9,16.9,-0.3,5.73,1.71,2.7,30.7
2015-07-04 01:17:00,0.0,1.87636,0.00032,393.550,0.096,0.7235,0.0065,140.002,45.000,32221.69853,1.89000,397.058,36.353,45.067,45.000,0.00,0.10,-272.72,-272.78,-2,667,-10,27.1,15.3,-1.5,26.8,16.9,-0.4,5.73,1.80,2.7,30.6
2015-07-04 01:18:00,0.0,1.87594,0.00039,393.157,0.173,0.7525,0.0101,140.002,45.000,32222.46893,1.89011,396.798,36.359,45.067,45.000,0.00,0.10,-272.71,-272.78,-2,667,-10,27.1,15.9,-0.9,26.8,16.8,-0.4,5.73,1.80,2.7,30.6
2015-07-04 01:19:00,0.0,1.87651,0.00028,393.359,0.118,0.7434,0.0087,139.997,45.000,32219.24160,1.89058,396.958,36.362,45.067,45.000,0.00,0.10,-272.72,-272.78,-2,667,-10,27.1,15.5,-1.3,26.8,16.8,-0.5,5.73,1.71,2.7,30.7
2015-07-04 01:20:00,0.0,1.87606,0.00047,393.226,0.187,0.7590,0.0282,140.005,45.000,32219.39852,1.89043,396.902,36.349,45.067,45.000,0.00,0.10,-272.72,-272.78,-3,667,-10,27.1,16.5,-0.5,26.8,16.7,-0.5,5.73,1.64,2.7,30.6
2015-07-04 01:21:00,0.0,1.87539,0.00050,392.871,0.082,0.8144,0.0088,140.002,45.000,32217.21706,1.89083,396.819,36.324,45.067,45.000,0.00,0.10,-272.72,-272.78,-3,667,-10,27.1,17.5,0.4,26.9,16.7,-0.5,5.73,1.68,2.7,30.6
2015-07-04 01:22:00,0.0,1.87518,0.00045,392.790,0.032,0.8274,0.0028,140.002,45.000,32221.82899,1.89084,396.801,36.313,45.067,45.000,0.00,0.10,-272.72,-272.78,-2,667,-10,27.1,17.6,0.4,26.8,16.7,-0.6,5.73,1.78,2.7,30.7
2015-07-04 01:23:00,0.0,1.87521,0.00032,392.828,0.019,0.8240,0.0027,140.002,45.000,32222.47201,1.89081,396.824,36.308,45.067,45.000,0.00,0.10,-272.72,-272.79,-2,667,-10,27.1,17.5,0.3,26.8,16.6,-0.6,5.73,1.82,2.7,30.7
2015-07-04 01:24:00,0.0,1.87578,0.00058,392.931,0.058,0.8090,0.0065,139.999,45.000,32219.86967,1.89108,396.856,36.310,45.067,45.001,0.00,0.10,-272.72,-272.78,-3,667,-10,27.1,17.1,0.1,26.8,16.6,-0.6,5.73,1.74,2.7,30.7
2015-07-04 01:25:00,0.0,1.87594,0.00033,392.800,0.073,0.8111,0.0039,139.998,45.000,32219.71578,1.89131,396.731,36.299,45.067,45.000,0.00,0.10,-272.72,-272.78,-3,667,-10,27.1,17.2,0.1,26.9,16.6,-0.6,5.73,1.64,2.7,30.6
2015-07-04 01:26:00,0.0,1.87645,0.00034,392.856,0.039,0.8060,0.0043,140.000,45.000,32222.19007,1.89167,396.764,36.309,45.067,45.000,0.00,0.10,-272.72,-272.78,-2,667,-10,27.1,17.0,-0.1,26.8,16.6,-0.6,5.73,1.66,2.7,30.6
2015-07-04 01:27:00,0.0,1.87686,0.00042,392.911,0.081,0.7935,0.0043,140.000,45.000,32222.58301,1.89191,396.758,36.311,45.067,45.000,0.00,0.10,-272.72,-272.78,-2,667,-10,27.1,16.9,-0.1,26.8,16.6,-0.6,5.73,1.76,2.7,30.6
2015-07-04 01:28:00,0.0,1.87600,0.00053,392.787,0.035,0.8162,0.0034,140.005,45.000,32226.40853,1.89149,396.741,36.292,45.067,45.000,0.00,0.10,-272.72,-272.78,-3,667,-10,27.1,17.3,0.2,26.8,16.6,-0.6,5.73,1.82,2.7,30.6
2015-07-04 01:29:00,0.0,1.87617,0.00043,392.850,0.065,0.8048,0.0098,139.999,45.000,32226.67216,1.89140,396.751,36.297,45.067,45.000,0.00,0.10,-272.73,-272.79,-2,667,-10,27.1,17.0,-0.1,26.8,16.7,-0.5,5.73,1.76,2.7,30.7
2015-07-04 01:30:00,0.0,1.87654,0.00031,392.757,0.088,0.8104,0.0081,140.003,45.000,32223.73311,1.89186,396.684,36.304,45.067,45.000,0.00,0.10,-272.72,-272.78,-2,667,-10,27.1,17.3,0.2,26.8,16.7,-0.5,5.73,1.66,2.7,30.6
2015-07-04 01:31:00,0.0,1.87618,0.00044,392.725,0.036,0.8188,0.0051,140.000,45.000,32224.24511,1.89174,396.694,36.313,45.067,45.000,0.00,0.10,-272.71,-272.78,-2,668,-10,27.1,17.3,0.2,26.8,16.8,-0.4,5.73,1.65,2.7,30.6
2015-07-04 01:32:00,0.0,1.87603,0.00053,392.662,0.026,0.8261,0.0057,140.000,45.000,32224.68766,1.89165,396.665,36.309,45.067,45.000,0.00,0.10,-272.72,-272.79,-3,667,-10,27.1,17.6,0.4,26.8,16.9,-0.4,5.73,1.76,2.7,30.7
2015-07-04 01:33:00,0.0,1.87612,0.00034,392.653,0.043,0.8257,0.0034,140.002,45.000,32223.79551,1.89176,396.659,36.310,45.067,45.000,0.00,0.10,-272.72,-272.79,-2,667,-10,27.1,17.5,0.4,26.8,16.9,-0.3,5.73,1.82,2.7,30.7
2015-07-04 01:34:00,0.0,1.87573,0.00050,392.608,0.060,0.8322,0.0031,140.002,45.000,32223.36120,1.89155,396.643,36.297,45.067,45.000,0.00,0.10,-272.72,-272.78,-1,668,-10,27.1,17.8,0.6,26.8,17.0,-0.3,5.73,1.76,2.7,30.7
2015-07-04 01:35:00,0.0,1.87503,0.00036,392.477,0.084,0.8467,0.0033,139.999,45.000,32223.96736,1.89109,396.581,36.291,45.067,45.000,0.00,0.10,-272.72,-272.78,-2,667,-10,27.1,18.1,0.8,26.8,17.1,-0.2,5.73,1.65,2.7,30.7
2015-07-04 01:36:00,0.0,1.87476,0.00044,392.406,0.041,0.8624,0.0042,139.999,45.000,32223.44626,1.89112,396.589,36.278,45.067,45.000,0.00,0.10,-272.72,-272.79,-3,667,-10,27.1,18.5,1.1,26.8,17.1,-0.2,5.73,1.65,2.7,30.7
2015-07-04 01:37:00,0.0,1.87410,0.00037,392.336,0.092,0.8806,0.0036,139.998,45.000,32227.08590,1.89080,396.609,36.258,45.067,45.000,0.00,0.10,-272.72,-272.79,-2,667,-10,27.1,19.0,1.5,26.8,17.2,-0.2,5.73,1.76,2.7,30.6
2015-07-04 01:38:00,0.0,1.87352,0.00037,392.189,0.116,0.9038,0.0050,140.000,45.000,32228.41359,1.89067,396.571,36.251,45.067,45.000,0.00,0.10,-272.72,-272.78,-2,667,-10,27.1,19.3,1.7,26.8,17.2,-0.1,5.73,1.83,2.7,30.6
2015-07-04 01:39:00,0.0,1.87422,0.00031,392.489,0.071,0.8743,0.0129,140.001,45.000,32228.80251,1.89079,396.732,36.251,45.067,45.000,0.00,0.10,-272.72,-272.78,-2,668,-10,27.1,18.5,1.2,26.8,17.3,-0.1,5.73,1.75,2.7,30.6
2015-07-04 01:40:00,0.0,1.87440,0.00037,392.544,0.057,0.8684,0.0052,140.002,45.000,32230.00200,1.89085,396.763,36.256,45.067,45.000,0.00,0.10,-272.72,-272.78,-3,668,-10,27.1,18.4,1.1,26.8,17.3,-0.0,5.73,1.65,2.7,30.6
2015-07-04 01:41:00,0.0,1.87497,0.00052,392.535,0.089,0.8618,0.0047,140.000,45.000,32229.01429,1.89130,396.722,36.293,45.067,45.000,0.00,0.10,-272.71,-272.78,-2,668,-10,27.1,18.3,1.0,26.8,17.4,0.0,5.73,1.66,2.7,30.6
2015-07-04 01:42:00,0.0,1.87467,0.00042,392.083,0.200,0.8789,0.0125,140.000,45.000,32229.34550,1.89134,396.351,36.308,45.067,45.000,0.00,0.10,-272.72,-272.78,-1,668,-10,27.1,19.0,1.5,26.8,17.5,0.1,5.73,1.77,2.7,30.6
2015-07-04 01:43:00,0.0,1.87342,0.00050,391.986,0.078,0.9174,0.0088,140.001,45.000,32229.37286,1.89089,396.435,36.312,45.067,45.000,0.00,0.10,-272.73,-272.79,-2,668,-10,27.1,19.7,2.1,26.8,17.5,0.1,5.73,1.82,2.7,30.6
2015-07-04 01:44:00,0.0,1.87346,0.00036,391.770,0.169,0.9200,0.0088,139.998,45.000,32228.02806,1.89091,396.226,36.313,45.067,45.000,0.00,0.10,-272.72,-272.78,-2,668,-10,27.1,19.9,2.1,26.8,17.6,0.2,5.73,1.74,2.7,30.7
2015-07-04 01:45:00,0.0,1.87341,0.00052,392.108,0.145,0.9258,0.0128,139.998,45.000,32227.84611,1.89100,396.606,36.329,45.066,45.000,0.00,0.10,-272.71,-272.78,-2,668,-10,27.1,19.6,1.9,26.8,17.7,0.3,5.73,1.64,2.7,30.7
2015-07-04 01:46:00,0.0,1.87397,0.00044,392.243,0.095,0.9006,0.0043,139.999,45.000,32226.60462,1.89105,396.615,36.332,45.066,45.000,0.00,0.10,-272.72,-272.79,-1,668,-10,27.1,19.2,1.6,26.8,17.8,0.3,5.73,1.66,2.7,30.7
2015-07-04 01:47:00,0.0,1.87352,0.00055,392.220,0.077,0.9012,0.0026,140.000,45.000,32230.15974,1.89056,396.600,36.363,45.066,45.000,0.00,0.10,-272.72,-272.78,-2,668,-10,27.1,19.3,1.7,26.8,17.8,0.4,5.73,1.78,2.7,30.7